This is the latest recevied weather packets stored in our database for station/object KF8LO-1. If no packets are shown the sender has not sent any weather packets the latest 1 day(s).
| Time | Temp. | Humidity | Pressure | Rain* | Wind** | Luminosity | Snow |
|---|---|---|---|---|---|---|---|
| 1778054103 | 15.56° C | 55% | 0 hPa | 0 mm | 2.68 m/s, 239° | - | - |
| 1778053803 | 16.11° C | 53% | 0 hPa | 0 mm | 3.58 m/s, 267° | - | - |
| 1778053503 | 16.11° C | 51% | 0 hPa | 0 mm | 3.13 m/s, 299° | - | - |
| 1778053203 | 16.11° C | 50% | 0 hPa | 0 mm | 3.58 m/s, 247° | - | - |
| 1778052903 | 16.11° C | 50% | 0 hPa | 0 mm | 2.68 m/s, 254° | - | - |
| 1778052603 | 16.11° C | 49% | 0 hPa | 0 mm | 1.34 m/s, 299° | - | - |
| 1778052303 | 16.11° C | 48% | 0 hPa | 0 mm | 3.58 m/s, 257° | - | - |
| 1778052003 | 16.67° C | 47% | 0 hPa | 0 mm | 1.79 m/s, 175° | - | - |
| 1778051715 | 16.67° C | 47% | 0 hPa | 0 mm | 4.92 m/s, 246° | - | - |
| 1778051403 | 16.67° C | 47% | 0 hPa | 0 mm | 2.24 m/s, 247° | - | - |
| 1778051103 | 16.67° C | 46% | 0 hPa | 0 mm | 1.79 m/s, 279° | - | - |
| 1778050803 | 16.67° C | 46% | 0 hPa | 0 mm | 3.13 m/s, 258° | - | - |
| 1778050503 | 16.67° C | 45% | 0 hPa | 0 mm | 3.58 m/s, 239° | - | - |
| 1778050203 | 16.67° C | 46% | 0 hPa | 0 mm | 1.79 m/s, 285° | - | - |
| 1778049903 | 16.67° C | 45% | 0 hPa | 0 mm | 2.68 m/s, 255° | - | - |
| 1778049603 | 16.67° C | 45% | 0 hPa | 0 mm | 2.68 m/s, 240° | - | - |
| 1778049303 | 16.67° C | 45% | 0 hPa | 0 mm | 3.58 m/s, 250° | - | - |
| 1778049003 | 16.67° C | 45% | 0 hPa | 0 mm | 2.24 m/s, 277° | - | - |
| 1778048703 | 16.67° C | 45% | 0 hPa | 0 mm | 4.02 m/s, 233° | - | - |
| 1778048403 | 16.67° C | 45% | 0 hPa | 0 mm | 4.47 m/s, 215° | - | - |
| 1778048103 | 16.67° C | 45% | 0 hPa | 0 mm | 4.02 m/s, 222° | - | - |
| 1778047803 | 16.67° C | 45% | 0 hPa | 0 mm | 3.13 m/s, 255° | - | - |
| 1778047503 | 16.67° C | 45% | 0 hPa | 0 mm | 3.13 m/s, 264° | - | - |
| 1778047203 | 16.67° C | 45% | 0 hPa | 0 mm | 3.13 m/s, 209° | - | - |
| 1778046903 | 16.67° C | 45% | 0 hPa | 0 mm | 3.13 m/s, 268° | - | - |
* Rain latest hour (hover to see other rain measurements)
** Current wind speed in m/s (hover to see current wind gust speed)